| time (UTC) | temp F | wind direction | speed MPH | gust MPH | rain 1hr in | rain 24hr in | rain mn in | humidity % | barometer mb |
| 20260831021041 | 90 | 171 | 1.0 | 1.0 | 0.00 | 0.00 | 0.00 | 39 | 1014.7 |
| 20260831020041 | 90 | 149 | 3.0 | 4.0 | 0.00 | 0.00 | 0.00 | 38 | 1014.7 |
| 20260831015041 | 90 | 155 | 2.0 | 3.0 | 0.00 | 0.00 | 0.00 | 37 | 1014.6 |
| 20260831014041 | 91 | 175 | 1.0 | 1.0 | 0.00 | 0.00 | 0.00 | 37 | 1014.5 |
| 20260831013040 | 91 | 173 | 2.0 | 2.0 | 0.00 | 0.00 | 0.00 | 36 | 1014.5 |
| 20260831012040 | 92 | 168 | 1.0 | 1.0 | 0.00 | 0.00 | 0.00 | 36 | 1014.5 |
| 20260831011040 | 93 | 167 | 2.0 | 2.0 | 0.00 | 0.00 | 0.00 | 35 | 1014.3 |
| 20260831010041 | 93 | 167 | 2.0 | 2.0 | 0.00 | 0.00 | 0.00 | 34 | 1014.0 |
| 20260831005041 | 94 | 171 | 2.0 | 2.0 | 0.00 | 0.00 | 0.00 | 33 | 1014.1 |
| 20260831004040 | 95 | 183 | 1.0 | 1.0 | 0.00 | 0.00 | 0.00 | 32 | 1014.1 |
| 20260831003040 | 96 | 160 | 1.0 | 2.0 | 0.00 | 0.00 | 0.00 | 32 | 1014.0 |
| 20260831002040 | 97 | 154 | 5.0 | 9.0 | 0.00 | 0.00 | 0.00 | 31 | 1014.2 |
| 20260831001121 | 97 | 169 | 2.0 | 3.0 | 0.00 | 0.00 | 0.00 | 31 | 1014.0 |
| 20260831000041 | 98 | 172 | 5.0 | 7.0 | 0.00 | 0.00 | 0.00 | 30 | 1014.1 |
| 20260830235041 | 98 | 149 | 4.0 | 6.0 | 0.00 | 0.00 | 0.00 | 30 | 1014.2 |
| 20260830234041 | 98 | 183 | 9.0 | 10.0 | 0.00 | 0.00 | 0.00 | 30 | 1014.2 |
| 20260830233041 | 99 | 169 | 2.0 | 4.0 | 0.00 | 0.00 | 0.00 | 29 | 1014.4 |
| 20260830232040 | 100 | 167 | 4.0 | 6.0 | 0.00 | 0.00 | 0.00 | 27 | 1014.4 |
| 20260830231040 | 100 | 185 | 2.0 | 2.0 | 0.00 | 0.00 | 0.00 | 27 | 1014.5 |
| 20260830230041 | 100 | 214 | 5.0 | 7.0 | 0.00 | 0.00 | 0.00 | 27 | 1014.5 |
| 20260830225041 | 100 | 168 | 5.0 | 6.0 | 0.00 | 0.00 | 0.00 | 27 | 1014.3 |
| 20260830224041 | 100 | 149 | 8.0 | 10.0 | 0.00 | 0.00 | 0.00 | 27 | 1014.5 |
| 20260830223040 | 101 | 165 | 5.0 | 7.0 | 0.00 | 0.00 | 0.00 | 26 | 1014.6 |
| 20260830222041 | 101 | 214 | 2.0 | 2.0 | 0.00 | 0.00 | 0.00 | 26 | 1014.4 |
| 20260830221040 | 101 | 209 | 5.0 | 7.0 | 0.00 | 0.00 | 0.00 | 26 | 1014.5 |
| 20260830220041 | 101 | 128 | 9.0 | 9.0 | 0.00 | 0.00 | 0.00 | 25 | 1014.4 |
| 20260830215041 | 101 | 123 | 3.0 | 7.0 | 0.00 | 0.00 | 0.00 | 25 | 1014.5 |
| 20260830214041 | 101 | 212 | 4.0 | 6.0 | 0.00 | 0.00 | 0.00 | 25 | 1014.6 |
| 20260830213041 | 100 | 203 | 2.0 | 3.0 | 0.00 | 0.00 | 0.00 | 27 | 1014.6 |
| 20260830212040 | 100 | 120 | 9.0 | 11.0 | 0.00 | 0.00 | 0.00 | 27 | 1015.1 |
| 20260830211040 | 98 | 177 | 7.0 | 8.0 | 0.00 | 0.00 | 0.00 | 28 | 1014.9 |
| 20260830210041 | 99 | 158 | 10.0 | 13.0 | 0.00 | 0.00 | 0.00 | 28 | 1015.0 |
| 20260830205101 | 98 | 154 | 11.0 | 11.0 | 0.00 | 0.00 | 0.00 | 29 | 1015.0 |
| 20260830204041 | 100 | 198 | 2.0 | 3.0 | 0.00 | 0.00 | 0.00 | 29 | 1015.4 |
| 20260830203041 | 98 | 146 | 15.0 | 17.0 | 0.00 | 0.00 | 0.00 | 29 | 1015.4 |
| 20260830202040 | 99 | 191 | 11.0 | 14.0 | 0.00 | 0.00 | 0.00 | 31 | 1015.4 |
| 20260830201041 | 99 | 134 | 9.0 | 10.0 | 0.00 | 0.00 | 0.00 | 31 | 1015.7 |
| 20260830195041 | 98 | 122 | 12.0 | 14.0 | 0.00 | 0.00 | 0.00 | 33 | 1016.1 |
| 20260830194101 | 99 | 172 | 6.0 | 7.0 | 0.00 | 0.00 | 0.00 | 32 | 1016.3 |
| 20260830193101 | 100 | 153 | 7.0 | 8.0 | 0.00 | 0.00 | 0.00 | 33 | 1016.1 |
| 20260830192040 | 101 | 208 | 3.0 | 7.0 | 0.00 | 0.00 | 0.00 | 31 | 1016.4 |
| 20260830191040 | 100 | 119 | 7.0 | 9.0 | 0.00 | 0.00 | 0.00 | 30 | 1016.5 |
| 20260830190040 | 99 | 180 | 11.0 | 13.0 | 0.00 | 0.00 | 0.00 | 31 | 1016.8 |
| 20260830185041 | 99 | 171 | 7.0 | 10.0 | 0.00 | 0.00 | 0.00 | 32 | 1016.7 |
| 20260830184041 | 98 | 187 | 4.0 | 6.0 | 0.00 | 0.00 | 0.00 | 33 | 1016.8 |
| 20260830183041 | 98 | 161 | 8.0 | 10.0 | 0.00 | 0.00 | 0.00 | 35 | 1016.9 |
| 20260830182040 | 98 | 127 | 5.0 | 8.0 | 0.00 | 0.00 | 0.00 | 35 | 1017.0 |
| 20260830181040 | 97 | 191 | 8.0 | 10.0 | 0.00 | 0.00 | 0.00 | 35 | 1017.3 |
| 20260830180040 | 98 | 188 | 4.0 | 6.0 | 0.00 | 0.00 | 0.00 | 36 | 1017.4 |
| 20260830175041 | 97 | 107 | 5.0 | 7.0 | 0.00 | 0.00 | 0.00 | 36 | 1017.6 |
| 20260830174100 | 97 | 178 | 7.0 | 10.0 | 0.00 | 0.00 | 0.00 | 37 | 1017.6 |
| 20260830173100 | 96 | 192 | 3.0 | 4.0 | 0.00 | 0.00 | 0.00 | 39 | 1017.9 |
| 20260830172121 | 96 | 178 | 6.0 | 8.0 | 0.00 | 0.00 | 0.00 | 38 | 1018.0 |
| 20260830171039 | 96 | 166 | 7.0 | 10.0 | 0.00 | 0.00 | 0.00 | 38 | 1018.0 |
| 20260830170041 | 95 | 210 | 4.0 | 10.0 | 0.00 | 0.00 | 0.00 | 40 | 1018.3 |
| 20260830165040 | 95 | 177 | 7.0 | 9.0 | 0.00 | 0.00 | 0.00 | 41 | 1018.5 |
| 20260830164040 | 94 | 224 | 5.0 | 8.0 | 0.00 | 0.00 | 0.00 | 41 | 1018.4 |
| 20260830163041 | 94 | 215 | 7.0 | 9.0 | 0.00 | 0.00 | 0.00 | 41 | 1018.5 |
| 20260830162041 | 93 | 193 | 3.0 | 4.0 | 0.00 | 0.00 | 0.00 | 43 | 1018.5 |
| 20260830161040 | 93 | 168 | 3.0 | 4.0 | 0.00 | 0.00 | 0.00 | 42 | 1018.5 |
| 20260830160041 | 93 | 192 | 7.0 | 8.0 | 0.00 | 0.00 | 0.00 | 44 | 1018.4 |
| 20260830155041 | 92 | 188 | 7.0 | 11.0 | 0.00 | 0.00 | 0.00 | 47 | 1018.5 |
| 20260830154040 | 92 | 189 | 7.0 | 9.0 | 0.00 | 0.00 | 0.00 | 47 | 1018.5 |
| 20260830153040 | 91 | 176 | 2.0 | 4.0 | 0.00 | 0.00 | 0.00 | 48 | 1018.5 |
| 20260830152040 | 90 | 178 | 3.0 | 4.0 | 0.00 | 0.00 | 0.00 | 50 | 1018.6 |
| 20260830151040 | 90 | 175 | 4.0 | 6.0 | 0.00 | 0.00 | 0.00 | 51 | 1018.7 |
| 20260830150041 | 89 | 180 | 4.0 | 4.0 | 0.00 | 0.00 | 0.00 | 52 | 1018.5 |
| 20260830145041 | 88 | 203 | 5.0 | 6.0 | 0.00 | 0.00 | 0.00 | 53 | 1018.5 |
| 20260830144040 | 87 | 118 | 4.0 | 4.0 | 0.00 | 0.00 | 0.00 | 53 | 1018.5 |
| 20260830143041 | 87 | 212 | 3.0 | 4.0 | 0.00 | 0.00 | 0.00 | 54 | 1018.7 |
| 20260830142041 | 86 | 163 | 4.0 | 4.0 | 0.00 | 0.00 | 0.00 | 56 | 1018.6 |
| 20260830141040 | 85 | 170 | 5.0 | 6.0 | 0.00 | 0.00 | 0.00 | 58 | 1018.8 |
| 20260830140040 | 85 | 151 | 2.0 | 3.0 | 0.00 | 0.00 | 0.00 | 60 | 1018.6 |
| 20260830135040 | 84 | 156 | 4.0 | 6.0 | 0.00 | 0.00 | 0.00 | 61 | 1018.5 |
| 20260830134040 | 83 | 195 | 3.0 | 4.0 | 0.00 | 0.00 | 0.00 | 62 | 1018.6 |
| 20260830133041 | 83 | 178 | 4.0 | 4.0 | 0.00 | 0.00 | 0.00 | 62 | 1018.5 |
| 20260830132041 | 82 | 150 | 5.0 | 6.0 | 0.00 | 0.00 | 0.00 | 63 | 1018.3 |
| 20260830131040 | 81 | 169 | 2.0 | 3.0 | 0.00 | 0.00 | 0.00 | 65 | 1018.4 |
| 20260830130040 | 80 | 171 | 2.0 | 2.0 | 0.00 | 0.00 | 0.00 | 66 | 1018.2 |
| 20260830125040 | 79 | 157 | 2.0 | 2.0 | 0.00 | 0.00 | 0.00 | 67 | 1018.1 |
| 20260830124040 | 78 | 142 | 4.0 | 4.0 | 0.00 | 0.00 | 0.00 | 68 | 1017.9 |
| 20260830123041 | 77 | 152 | 3.0 | 3.0 | 0.00 | 0.00 | 0.00 | 68 | 1017.9 |
| 20260830122040 | 77 | 155 | 2.0 | 2.0 | 0.00 | 0.00 | 0.00 | 68 | 1017.6 |
| 20260830121041 | 76 | 169 | 2.0 | 2.0 | 0.00 | 0.00 | 0.00 | 68 | 1017.5 |
| 20260830120041 | 76 | 172 | 1.0 | 1.0 | 0.00 | 0.00 | 0.00 | 67 | 1017.3 |
| 20260830115101 | 77 | 171 | 1.0 | 1.0 | 0.00 | 0.00 | 0.00 | 66 | 1017.4 |
| 20260830114040 | 77 | 157 | 1.0 | 2.0 | 0.00 | 0.00 | 0.00 | 64 | 1017.0 |
| 20260830113040 | 77 | 174 | 1.0 | 1.0 | 0.00 | 0.00 | 0.00 | 63 | 1017.0 |
| 20260830112041 | 78 | 166 | 1.0 | 1.0 | 0.00 | 0.00 | 0.00 | 62 | 1016.9 |
| 20260830111040 | 78 | 163 | 1.0 | 1.0 | 0.00 | 0.00 | 0.00 | 61 | 1016.8 |
| 20260830110041 | 78 | 163 | 1.0 | 2.0 | 0.00 | 0.00 | 0.00 | 60 | 1016.8 |
| 20260830105041 | 78 | 170 | 1.0 | 1.0 | 0.00 | 0.00 | 0.00 | 61 | 1016.6 |
| 20260830104040 | 79 | 156 | 2.0 | 2.0 | 0.00 | 0.00 | 0.00 | 59 | 1016.7 |
| 20260830103040 | 79 | 161 | 1.0 | 1.0 | 0.00 | 0.00 | 0.00 | 57 | 1016.7 |
| 20260830102100 | 79 | 153 | 2.0 | 2.0 | 0.00 | 0.00 | 0.00 | 57 | 1016.5 |
| 20260830101040 | 79 | 165 | 1.0 | 1.0 | 0.00 | 0.00 | 0.00 | 57 | 1016.6 |
| 20260830100040 | 80 | 171 | 1.0 | 1.0 | 0.00 | 0.00 | 0.00 | 56 | 1016.5 |
| 20260830095040 | 80 | 158 | 2.0 | 2.0 | 0.00 | 0.00 | 0.00 | 55 | 1016.5 |
| 20260830094040 | 81 | 169 | 2.0 | 2.0 | 0.00 | 0.00 | 0.00 | 54 | 1016.5 |
| 20260830093120 | 81 | 170 | 4.0 | 4.0 | 0.00 | 0.00 | 0.00 | 54 | 1016.5 |
| 20260830092100 | 81 | 128 | 4.0 | 4.0 | 0.00 | 0.00 | 0.00 | 54 | 1016.6 |
| 20260830091041 | 81 | 142 | 3.0 | 3.0 | 0.00 | 0.00 | 0.00 | 53 | 1016.7 |
| 20260830090121 | 82 | 125 | 5.0 | 5.0 | 0.00 | 0.00 | 0.00 | 52 | 1016.5 |
| 20260830085101 | 82 | 152 | 5.0 | 6.0 | 0.00 | 0.00 | 0.00 | 51 | 1016.5 |
| 20260830084041 | 83 | 133 | 6.0 | 8.0 | 0.00 | 0.00 | 0.00 | 49 | 1016.6 |
| 20260830083041 | 83 | 140 | 6.0 | 7.0 | 0.00 | 0.00 | 0.00 | 48 | 1016.6 |
| 20260830082041 | 83 | 109 | 5.0 | 6.0 | 0.00 | 0.00 | 0.00 | 48 | 1016.7 |
| 20260830081041 | 83 | 161 | 3.0 | 3.0 | 0.00 | 0.00 | 0.00 | 48 | 1016.6 |
| 20260830080041 | 83 | 125 | 4.0 | 6.0 | 0.00 | 0.00 | 0.00 | 48 | 1016.4 |
| 20260830075041 | 84 | 148 | 4.0 | 6.0 | 0.00 | 0.00 | 0.00 | 48 | 1016.7 |
| 20260830074121 | 84 | 121 | 3.0 | 3.0 | 0.00 | 0.00 | 0.00 | 47 | 1016.8 |
| 20260830073041 | 84 | 152 | 3.0 | 3.0 | 0.00 | 0.00 | 0.00 | 47 | 1016.8 |
| 20260830072041 | 84 | 119 | 3.0 | 3.0 | 0.00 | 0.00 | 0.00 | 47 | 1016.7 |
| 20260830071120 | 85 | 134 | 5.0 | 7.0 | 0.00 | 0.00 | 0.00 | 47 | 1016.9 |
| 20260830070041 | 85 | 102 | 4.0 | 4.0 | 0.00 | 0.00 | 0.00 | 47 | 1016.6 |
| 20260830065041 | 85 | 163 | 5.0 | 6.0 | 0.00 | 0.00 | 0.00 | 46 | 1016.8 |
| 20260830064101 | 85 | 167 | 4.0 | 4.0 | 0.00 | 0.00 | 0.00 | 45 | 1016.8 |
| 20260830063040 | 86 | 115 | 5.0 | 8.0 | 0.00 | 0.00 | 0.00 | 43 | 1016.7 |
| 20260830062040 | 86 | 129 | 7.0 | 8.0 | 0.00 | 0.00 | 0.00 | 43 | 1016.9 |
| 20260830061040 | 87 | 160 | 7.0 | 8.0 | 0.00 | 0.00 | 0.00 | 43 | 1016.8 |
| 20260830060040 | 87 | 130 | 6.0 | 6.0 | 0.00 | 0.00 | 0.00 | 42 | 1016.8 |
| 20260830055040 | 87 | 131 | 6.0 | 9.0 | 0.00 | 0.00 | 0.00 | 43 | 1016.7 |
| 20260830054040 | 87 | 166 | 7.0 | 9.0 | 0.00 | 0.00 | 0.00 | 43 | 1016.9 |
| 20260830053041 | 87 | 153 | 2.0 | 2.0 | 0.00 | 0.00 | 0.00 | 45 | 1016.8 |
| 20260830052040 | 86 | 147 | 7.0 | 8.0 | 0.00 | 0.00 | 0.00 | 46 | 1016.7 |
| 20260830051040 | 86 | 95 | 6.0 | 7.0 | 0.00 | 0.00 | 0.00 | 47 | 1016.8 |
| 20260830050042 | 85 | 131 | 5.0 | 6.0 | 0.00 | 0.00 | 0.00 | 49 | 1016.7 |
| 20260830045042 | 84 | 95 | 4.0 | 4.0 | 0.00 | 0.00 | 0.00 | 52 | 1016.9 |
| 20260830044041 | 83 | 94 | 7.0 | 8.0 | 0.00 | 0.00 | 0.00 | 54 | 1016.7 |
| 20260830043040 | 85 | 74 | 6.0 | 6.0 | 0.00 | 0.00 | 0.00 | 54 | 1016.5 |
| 20260830042041 | 85 | 180 | 1.0 | 1.0 | 0.00 | 0.00 | 0.00 | 53 | 1016.4 |
| 20260830041040 | 86 | 168 | 2.0 | 2.0 | 0.00 | 0.00 | 0.00 | 51 | 1016.4 |
| 20260830040034 | 86 | 155 | 2.0 | 2.0 | 0.00 | 0.00 | 0.00 | 52 | 1016.3 |
| 20260830035034 | 86 | 154 | 2.0 | 2.0 | 0.00 | 0.00 | 0.00 | 52 | 1016.2 |
| 20260830034034 | 87 | 168 | 1.0 | 1.0 | 0.00 | 0.00 | 0.00 | 50 | 1016.3 |
| 20260830033034 | 87 | 169 | 1.0 | 1.0 | 0.00 | 0.00 | 0.00 | 46 | 1016.2 |
| 20260830032033 | 88 | 161 | 2.0 | 2.0 | 0.00 | 0.00 | 0.00 | 44 | 1016.1 |
| 20260830031034 | 88 | 143 | 3.0 | 3.0 | 0.00 | 0.00 | 0.00 | 43 | 1016.0 |
| 20260830030034 | 89 | 154 | 2.0 | 3.0 | 0.00 | 0.00 | 0.00 | 42 | 1016.0 |
| 20260830025053 | 89 | 163 | 2.0 | 2.0 | 0.00 | 0.00 | 0.00 | 42 | 1015.9 |
| 20260830024034 | 90 | 154 | 3.0 | 4.0 | 0.00 | 0.00 | 0.00 | 41 | 1015.8 |
| 20260830023033 | 90 | 159 | 2.0 | 2.0 | 0.00 | 0.00 | 0.00 | 40 | 1015.7 |
| 20260830022034 | 91 | 163 | 3.0 | 3.0 | 0.00 | 0.00 | 0.00 | 39 | 1015.6 |